Pagine meno recenti

Vengono mostrati sotto 500 risultati dal 1 al 500.

Vedi (precedenti 500 | successivi 500) (20 | 50 | 100 | 250 | 500).

  1. 21-40‏‎ (10:38, 9 lug 2016)
  2. Accettare l'invito in una gilda‏‎ (15:37, 25 ago 2016)
  3. Gestione dell'esercito‏‎ (16:15, 25 ago 2016)
  4. Menù dell'Inventario‏‎ (17:57, 26 ago 2016)
  5. Creare una gilda‏‎ (23:29, 26 ago 2016)
  6. Monete‏‎ (23:47, 26 ago 2016)
  7. Medaglie‏‎ (23:49, 26 ago 2016)
  8. Ricompense Contribuzioni‏‎ (15:20, 27 ago 2016)
  9. Pasquale‏‎ (16:53, 27 ago 2016)
  10. Primo Compleanno di Forge of Empires‏‎ (23:25, 27 ago 2016)
  11. Colombo‏‎ (10:39, 28 ago 2016)
  12. Come abbandonare una gilda‏‎ (12:09, 4 set 2016)
  13. Menu classifica‏‎ (12:52, 4 set 2016)
  14. Grattamare‏‎ (13:00, 4 set 2016)
  15. Sicurezza account‏‎ (13:01, 4 set 2016)
  16. Abitazione autosufficiente‏‎ (17:06, 4 set 2016)
  17. Atto finale‏‎ (17:42, 4 set 2016)
  18. Barra di stato (desktop)‏‎ (18:05, 4 set 2016)
  19. Cattedrale di S. Basilio‏‎ (14:11, 5 set 2016)
  20. Classifica delle Gilde‏‎ (15:14, 5 set 2016)
  21. Colpo singolo‏‎ (15:24, 5 set 2016)
  22. Barra sociale‏‎ (20:02, 20 set 2016)
  23. Tipologia unità‏‎ (08:48, 6 ott 2016)
  24. Identità Segreta‏‎ (17:50, 11 ott 2016)
  25. Grepolis‏‎ (22:16, 11 ott 2016)
  26. Morale‏‎ (22:31, 11 ott 2016)
  27. Tribal Wars 2‏‎ (22:37, 11 ott 2016)
  28. The West‏‎ (22:38, 11 ott 2016)
  29. Elvenar‏‎ (22:39, 11 ott 2016)
  30. Incoraggiamento‏‎ (23:05, 11 ott 2016)
  31. Sciame di droni‏‎ (18:08, 12 ott 2016)
  32. Cecchino Antimateria‏‎ (18:09, 12 ott 2016)
  33. Artiglieria missilistica‏‎ (18:10, 12 ott 2016)
  34. Elicottero d'attacco‏‎ (18:11, 12 ott 2016)
  35. Artiglieria lanciarazzi‏‎ (18:11, 12 ott 2016)
  36. Artiglieria Meccanizata‏‎ (18:24, 12 ott 2016)
  37. Carro da battaglia‏‎ (18:30, 12 ott 2016)
  38. Fanteria Meccanizzata‏‎ (18:34, 12 ott 2016)
  39. Carro Armato‏‎ (19:45, 12 ott 2016)
  40. Guardia Imperiale‏‎ (21:26, 12 ott 2016)
  41. Cavaliere corazzato‏‎ (21:29, 12 ott 2016)
  42. Mercenario‏‎ (22:14, 12 ott 2016)
  43. Lancia Macigni‏‎ (22:21, 12 ott 2016)
  44. Classifica‏‎ (22:30, 12 ott 2016)
  45. Top center mobile‏‎ (08:47, 13 ott 2016)
  46. Top left‏‎ (09:10, 13 ott 2016)
  47. Raccogli tutto‏‎ (09:18, 13 ott 2016)
  48. Offerte‏‎ (09:22, 13 ott 2016)
  49. Impostazioni‏‎ (09:25, 13 ott 2016)
  50. Menù principale‏‎ (09:43, 13 ott 2016)
  51. Menù di ricerca‏‎ (09:53, 13 ott 2016)
  52. Top right‏‎ (10:16, 13 ott 2016)
  53. Barra dei Punti Forge‏‎ (10:18, 13 ott 2016)
  54. Tribal Wars‏‎ (18:12, 13 ott 2016)
  55. Testata multipla‏‎ (08:02, 14 ott 2016)
  56. Ricarica‏‎ (08:05, 14 ott 2016)
  57. Tiro potente‏‎ (09:14, 21 ott 2016)
  58. Terreno‏‎ (22:10, 5 nov 2016)
  59. Corpo a corpo‏‎ (09:30, 5 dic 2016)
  60. Tiratore scelto‏‎ (10:40, 20 feb 2017)
  61. Basilica di S. Marco‏‎ (14:26, 23 feb 2017)
  62. Anguilla Idroelettrica‏‎ (13:14, 15 mar 2017)
  63. Scava trincee‏‎ (13:41, 15 mar 2017)
  64. Tecnologie‏‎ (15:28, 15 mar 2017)
  65. Contemporanea‏‎ (10:56, 18 mar 2017)
  66. Domani‏‎ (10:58, 18 mar 2017)
  67. Bronzo‏‎ (12:01, 18 mar 2017)
  68. Livelli 61-75‏‎ (23:44, 4 apr 2017)
  69. Livelli 21-40‏‎ (23:45, 4 apr 2017)
  70. Livelli 41-60‏‎ (23:46, 4 apr 2017)
  71. Livello di Gilda‏‎ (23:46, 4 apr 2017)
  72. Cassa di Potenziamenti‏‎ (17:16, 10 apr 2017)
  73. Cannoni a rotaia‏‎ (11:19, 17 mag 2017)
  74. Menu impostazioni‏‎ (15:10, 26 mag 2017)
  75. Parte destra del mobile‏‎ (15:55, 26 mag 2017)
  76. Veleno‏‎ (17:44, 27 lug 2017)
  77. Industriale‏‎ (22:00, 5 ago 2017)
  78. Statua della fenice‏‎ (22:12, 30 ago 2017)
  79. Alto medioevo‏‎ (10:54, 10 set 2017)
  80. Pieno medioevo‏‎ (10:59, 10 set 2017)
  81. Basso medioevo‏‎ (11:01, 10 set 2017)
  82. Coloniale‏‎ (11:02, 10 set 2017)
  83. Progressista‏‎ (11:06, 10 set 2017)
  84. Moderno‏‎ (11:08, 10 set 2017)
  85. Postmoderno‏‎ (11:10, 10 set 2017)
  86. Futuro‏‎ (11:16, 10 set 2017)
  87. Futuro Artico‏‎ (11:20, 10 set 2017)
  88. Frenesia‏‎ (15:42, 3 dic 2017)
  89. Consiglieri per le missioni‏‎ (22:02, 3 dic 2017)
  90. Diamanti‏‎ (22:07, 3 dic 2017)
  91. Felicità‏‎ (22:13, 3 dic 2017)
  92. Municipio - schermata‏‎ (20:44, 4 dic 2017)
  93. Marilyn Monroe‏‎ (22:03, 5 dic 2017)
  94. Top right mobile‏‎ (12:47, 9 dic 2017)
  95. Top left Mobile‏‎ (12:50, 9 dic 2017)
  96. Mondi di gioco‏‎ (12:56, 9 dic 2017)
  97. Messaggistica e Chat‏‎ (13:03, 9 dic 2017)
  98. Punti Forge‏‎ (13:11, 9 dic 2017)
  99. Classifica medaglie‏‎ (13:44, 9 dic 2017)
  100. Arthur Conan Doyle‏‎ (20:18, 10 dic 2017)
  101. La visita di Leonardo‏‎ (20:23, 10 dic 2017)
  102. Il Racconto dell'Eroe‏‎ (21:27, 10 dic 2017)
  103. Incidenti‏‎ (21:47, 10 dic 2017)
  104. Guerriero coraggioso‏‎ (21:52, 10 dic 2017)
  105. Barbaro Fromboliere‏‎ (21:52, 10 dic 2017)
  106. Cavaliere coraggioso‏‎ (21:52, 10 dic 2017)
  107. Mercato‏‎ (22:28, 11 dic 2017)
  108. Basi‏‎ (23:45, 11 dic 2017)
  109. Inventario‏‎ (23:52, 11 dic 2017)
  110. Esercito e battaglie‏‎ (22:47, 12 dic 2017)
  111. Interazioni Sociali‏‎ (22:48, 12 dic 2017)
  112. Spedizioni di Gilda‏‎ (22:52, 12 dic 2017)
  113. Gilda vs Gilda‏‎ (00:22, 13 dic 2017)
  114. Committenti‏‎ (00:27, 13 dic 2017)
  115. Materiali‏‎ (00:33, 13 dic 2017)
  116. Taverna degli amici‏‎ (18:58, 13 dic 2017)
  117. San Valentino‏‎ (19:01, 13 dic 2017)
  118. Evento Pasquale‏‎ (19:03, 13 dic 2017)
  119. Giorno di Maggio‏‎ (19:04, 13 dic 2017)
  120. Cavalleria pesante‏‎ (19:21, 13 dic 2017)
  121. 5° Anniversario di Forge of Empires‏‎ (19:33, 13 dic 2017)
  122. Martin Luther King‏‎ (19:34, 13 dic 2017)
  123. Anno Bisestile‏‎ (19:35, 13 dic 2017)
  124. Yuri Gagarin‏‎ (19:37, 13 dic 2017)
  125. Isadora Duncan‏‎ (19:37, 13 dic 2017)
  126. Maria Stuarda‏‎ (19:39, 13 dic 2017)
  127. Sissi‏‎ (19:39, 13 dic 2017)
  128. Fratelli Montgolfier‏‎ (19:40, 13 dic 2017)
  129. Tour de France‏‎ (19:40, 13 dic 2017)
  130. Albert Einstein‏‎ (19:42, 13 dic 2017)
  131. Shah Jahan‏‎ (19:43, 13 dic 2017)
  132. Galileo Galilei‏‎ (19:46, 13 dic 2017)
  133. Mahatma Gandhi‏‎ (19:47, 13 dic 2017)
  134. Rosa Parks‏‎ (19:48, 13 dic 2017)
  135. Gilde‏‎ (19:58, 14 dic 2017)
  136. Amministrazione Gilda‏‎ (19:59, 14 dic 2017)
  137. Permessi di gilda‏‎ (20:00, 14 dic 2017)
  138. Popolazione‏‎ (20:02, 14 dic 2017)
  139. Campionati delle Gilde‏‎ (20:04, 14 dic 2017)
  140. Glossario‏‎ (20:07, 14 dic 2017)
  141. Regolamento‏‎ (20:13, 14 dic 2017)
  142. Sicurezza‏‎ (20:14, 14 dic 2017)
  143. Beni Speciali‏‎ (20:17, 14 dic 2017)
  144. Promezio‏‎ (20:19, 14 dic 2017)
  145. FAQ‏‎ (20:22, 14 dic 2017)
  146. Basilica di S. Sofia‏‎ (21:05, 8 gen 2018)
  147. Oracolo di Delfi‏‎ (21:17, 8 gen 2018)
  148. Stormo‏‎ (21:24, 26 feb 2018)
  149. Sciame‏‎ (21:37, 26 feb 2018)
  150. Aliante‏‎ (21:38, 26 feb 2018)
  151. Futuro Oceanico‏‎ (20:58, 27 feb 2018)
  152. Abilità speciali‏‎ (21:03, 27 feb 2018)
  153. Esplosione‏‎ (21:04, 27 feb 2018)
  154. Fiato del Drago‏‎ (21:04, 27 feb 2018)
  155. Volare‏‎ (21:06, 27 feb 2018)
  156. Oricalco‏‎ (21:12, 27 feb 2018)
  157. La Galassia Blu‏‎ (21:58, 4 mar 2018)
  158. Napoleone Bonaparte‏‎ (20:37, 5 mar 2018)
  159. Interfaccia‏‎ (21:03, 19 apr 2018)
  160. Mobile App‏‎ (21:17, 19 apr 2018)
  161. Applicazione Mobile‏‎ (21:18, 19 apr 2018)
  162. L'Universo‏‎ (21:20, 19 apr 2018)
  163. Cleopatra‏‎ (21:41, 19 apr 2018)
  164. Van Gogh‏‎ (20:19, 3 mag 2018)
  165. Sacajawea‏‎ (19:31, 19 mag 2018)
  166. Coppa di Calcio FoE‏‎ (20:53, 10 giu 2018)
  167. Carro armato a levitazione‏‎ (19:09, 12 lug 2018)
  168. Chiamata al Dovere‏‎ (21:51, 17 lug 2018)
  169. Cavalleria‏‎ (21:53, 17 lug 2018)
  170. Contatto!‏‎ (21:55, 17 lug 2018)
  171. Campo di forza‏‎ (21:56, 17 lug 2018)
  172. Schieramento rapido‏‎ (21:57, 17 lug 2018)
  173. Armatura reattiva‏‎ (21:58, 17 lug 2018)
  174. Nascosto‏‎ (21:59, 17 lug 2018)
  175. Campione‏‎ (22:04, 17 lug 2018)
  176. Bonus‏‎ (22:30, 17 lug 2018)
  177. Età del domani - Età del futuro virtuale‏‎ (23:01, 17 lug 2018)
  178. Tornei PvP‏‎ (23:05, 17 lug 2018)
  179. Industriale - Età Contemporanea‏‎ (23:06, 17 lug 2018)
  180. Bronzo - Età Coloniale‏‎ (23:06, 17 lug 2018)
  181. Municipio‏‎ (13:38, 18 lug 2018)
  182. Mappa Continentale‏‎ (13:44, 18 lug 2018)
  183. Costi sblocco difficoltà‏‎ (13:50, 18 lug 2018)
  184. Classifica giocatore‏‎ (13:51, 18 lug 2018)
  185. Beni‏‎ (16:13, 19 lug 2018)
  186. Edifici per i beni‏‎ (16:18, 19 lug 2018)
  187. Cimitero Antico‏‎ (19:17, 24 lug 2018)
  188. Palo di Maggio‏‎ (19:20, 24 lug 2018)
  189. Possente Palo di Maggio‏‎ (19:23, 24 lug 2018)
  190. Imponente Palo di Maggio‏‎ (19:25, 24 lug 2018)
  191. Fontana dell'Elefante‏‎ (19:36, 24 lug 2018)
  192. Pozzo dell'Accoglienza‏‎ (19:43, 24 lug 2018)
  193. Statua in Maschera‏‎ (10:47, 25 lug 2018)
  194. Statua in maschera da naso‏‎ (10:48, 25 lug 2018)
  195. Slitta con Renne‏‎ (10:51, 25 lug 2018)
  196. Statua d'ingresso Est/Ovest‏‎ (10:55, 25 lug 2018)
  197. Coppa del capocannoniere‏‎ (11:01, 25 lug 2018)
  198. Uomo Vitruviano‏‎ (11:06, 25 lug 2018)
  199. Cancello del Dio Sole‏‎ (11:10, 25 lug 2018)
  200. Premio d'Oro‏‎ (15:57, 25 lug 2018)
  201. Premio d'Argento‏‎ (15:58, 25 lug 2018)
  202. Premio di Bronzo‏‎ (15:59, 25 lug 2018)
  203. Premio di Pietra‏‎ (16:00, 25 lug 2018)
  204. Stagno Nishikigoi‏‎ (16:06, 25 lug 2018)
  205. Roccia di Sakura‏‎ (16:07, 25 lug 2018)
  206. Baobab Decorato‏‎ (16:14, 25 lug 2018)
  207. Parco Giochi del Bandar‏‎ (16:18, 25 lug 2018)
  208. Aro Titano‏‎ (16:20, 25 lug 2018)
  209. Giardino Chhatri‏‎ (16:22, 25 lug 2018)
  210. Albero dell'Amore‏‎ (16:24, 25 lug 2018)
  211. Grande Albero dell'Amore‏‎ (16:25, 25 lug 2018)
  212. Eterno Albero dell'amore‏‎ (16:27, 25 lug 2018)
  213. Ritiro del Campione‏‎ (16:41, 25 lug 2018)
  214. Ballo in Maschera‏‎ (10:53, 26 lug 2018)
  215. Mercato del Pontile della Gondola‏‎ (10:57, 26 lug 2018)
  216. Grande Fabbrica di dolciumi‏‎ (11:05, 26 lug 2018)
  217. Recinto delle renne‏‎ (11:06, 26 lug 2018)
  218. Enorme Fabbrica di dolciumi‏‎ (11:07, 26 lug 2018)
  219. Negozio Foeberge‏‎ (11:11, 26 lug 2018)
  220. Fattoria Terrazzata‏‎ (11:12, 26 lug 2018)
  221. Angolo dell'oratore‏‎ (18:45, 26 lug 2018)
  222. Villa Rinascimentale‏‎ (18:50, 26 lug 2018)
  223. Magione Rinascimentale‏‎ (18:51, 26 lug 2018)
  224. Casetta di Pan di Zenzero‏‎ (19:14, 26 lug 2018)
  225. Giardino dell'Obelisco‏‎ (19:15, 26 lug 2018)
  226. Santuario dell'Ispirazione‏‎ (19:18, 26 lug 2018)
  227. Santuario della Conoscenza‏‎ (19:19, 26 lug 2018)
  228. Piazza degli Scacchi‏‎ (19:22, 26 lug 2018)
  229. Guardia del Cielo Sacra‏‎ (19:24, 26 lug 2018)
  230. Casa stregata‏‎ (19:29, 26 lug 2018)
  231. Pilastro degli Eroi lvl 1‏‎ (19:39, 26 lug 2018)
  232. Pilastro degli Eroi lvl 2‏‎ (19:41, 26 lug 2018)
  233. Pilastro degli Eroi lvl 3‏‎ (19:42, 26 lug 2018)
  234. Pilastro degli Eroi lvl 4‏‎ (19:43, 26 lug 2018)
  235. Pilastro degli Eroi lvl 5‏‎ (19:44, 26 lug 2018)
  236. Pilastro degli Eroi lvl 6‏‎ (19:45, 26 lug 2018)
  237. Pilastro degli Eroi lvl 7‏‎ (19:46, 26 lug 2018)
  238. Tholos degli idoli‏‎ (18:31, 27 lug 2018)
  239. Pagoda ad un Piano‏‎ (18:32, 27 lug 2018)
  240. Zona Zen‏‎ (18:37, 27 lug 2018)
  241. Ingresso dell'Imperatore‏‎ (18:38, 27 lug 2018)
  242. Torre Orientale del Palazzo‏‎ (18:54, 27 lug 2018)
  243. Torre Occidentale del Palazzo‏‎ (18:55, 27 lug 2018)
  244. Chhatri Commemorativo‏‎ (18:56, 27 lug 2018)
  245. Ingresso della Fontana dell'Elefante‏‎ (18:58, 27 lug 2018)
  246. Tana delle tigri‏‎ (19:03, 27 lug 2018)
  247. Campo delle Guardie con Vessillo‏‎ (19:06, 27 lug 2018)
  248. Fontana della Giovinezza‏‎ (19:11, 27 lug 2018)
  249. Gong della Saggezza‏‎ (19:13, 27 lug 2018)
  250. Labirinto di Siepi‏‎ (19:23, 27 lug 2018)
  251. Fiamma Rituale‏‎ (19:25, 27 lug 2018)
  252. Pozzo dei Desideri‏‎ (19:34, 27 lug 2018)
  253. Evento Estivo 2013 - 2017‏‎ (19:59, 29 lug 2018)
  254. Evento Estivo‏‎ (13:46, 8 ago 2018)
  255. La Nave‏‎ (13:57, 8 ago 2018)
  256. Punti Classifica‏‎ (20:22, 15 ago 2018)
  257. Sfide Giornaliere‏‎ (19:14, 16 ago 2018)
  258. Warlords of Aternum‏‎ (19:40, 26 ago 2018)
  259. Modalità Ricostruzione (Mobile)‏‎ (21:31, 31 ago 2018)
  260. Parte sinistra del mobile‏‎ (21:42, 31 ago 2018)
  261. Menù di costruzione‏‎ (21:46, 31 ago 2018)
  262. Modalità Ricostruzione‏‎ (12:05, 1 set 2018)
  263. Consumabili‏‎ (16:21, 6 set 2018)
  264. Mulino d'autunno‏‎ (20:16, 9 set 2018)
  265. Mulino d'autunno - Lv. 1‏‎ (20:24, 9 set 2018)
  266. Mulino d'autunno - Lv. 2‏‎ (20:45, 9 set 2018)
  267. Mulino d'autunno - Lv. 3‏‎ (20:49, 9 set 2018)
  268. Mulino d'autunno - Lv. 4‏‎ (20:53, 9 set 2018)
  269. Mulino d'autunno - Lv. 5‏‎ (20:58, 9 set 2018)
  270. Mulino d'autunno - Lv. 6‏‎ (21:02, 9 set 2018)
  271. Tana dei Furfanti‏‎ (21:36, 9 set 2018)
  272. Fabbrica di succo in Fiore‏‎ (21:43, 9 set 2018)
  273. Fabbrica di succo Fruttuosa‏‎ (21:44, 9 set 2018)
  274. Fabbrica di succo Produttiva‏‎ (21:44, 9 set 2018)
  275. Evento autunnale 2017‏‎ (19:59, 10 set 2018)
  276. Evento autunnale‏‎ (18:41, 12 set 2018)
  277. Tamburino‏‎ (18:44, 12 set 2018)
  278. Scorciatoie da tastiera‏‎ (12:09, 29 set 2018)
  279. Rotonda Botanica‏‎ (20:34, 4 ott 2018)
  280. Genghis Khan‏‎ (20:45, 4 ott 2018)
  281. Missioni Storiche‏‎ (20:23, 5 ott 2018)
  282. Frammenti‏‎ (21:37, 18 ott 2018)
  283. Evento di Halloween 2017‏‎ (20:33, 19 ott 2018)
  284. Evento di Halloween‏‎ (12:46, 20 ott 2018)
  285. Fabbrica di dolciumi‏‎ (17:57, 24 ott 2018)
  286. Torre della vittoria‏‎ (13:00, 5 nov 2018)
  287. Set Palazzo Indiano‏‎ (22:24, 8 nov 2018)
  288. Set Fontana Indiana‏‎ (22:36, 8 nov 2018)
  289. Set Villaggio d'Inverno‏‎ (23:38, 8 nov 2018)
  290. Set Giardino Reale‏‎ (23:45, 8 nov 2018)
  291. Mortaio‏‎ (19:57, 11 nov 2018)
  292. Special Building List‏‎ (14:38, 29 nov 2018)
  293. Great Building List‏‎ (14:39, 29 nov 2018)
  294. Evento Invernale (2017)‏‎ (22:04, 30 nov 2018)
  295. Evento Invernale‏‎ (22:09, 30 nov 2018)
  296. Insediamenti Culturali‏‎ (21:02, 26 dic 2018)
  297. Emissari‏‎ (21:06, 26 dic 2018)
  298. Insediamento Culturale Vichingo‏‎ (21:01, 28 dic 2018)
  299. Panoramica degli Insediamenti Culturali‏‎ (21:04, 28 dic 2018)
  300. Ferro‏‎ (21:11, 28 dic 2018)
  301. Eventi e missioni storiche‏‎ (21:13, 28 dic 2018)
  302. Giardino classico‏‎ (19:07, 13 gen 2019)
  303. Pagina test‏‎ (18:45, 14 gen 2019)
  304. Forge Bowl 2018‏‎ (18:50, 14 gen 2019)
  305. Forge Bowl‏‎ (18:50, 14 gen 2019)
  306. Eventi Speciali‏‎ (18:52, 14 gen 2019)
  307. Emissari Vichinghi‏‎ (13:22, 3 feb 2019)
  308. Sito di lancio mongolfiere‏‎ (14:49, 6 feb 2019)
  309. Mercato d'Inverno‏‎ (14:49, 6 feb 2019)
  310. Piramide d'Inverno‏‎ (14:49, 6 feb 2019)
  311. Porta d'Inverno‏‎ (14:49, 6 feb 2019)
  312. Tribuna‏‎ (14:49, 6 feb 2019)
  313. Padiglione‏‎ (14:49, 6 feb 2019)
  314. Stagno d'autunno‏‎ (14:49, 6 feb 2019)
  315. Cimitero‏‎ (14:49, 6 feb 2019)
  316. Cimitero monumentale‏‎ (14:49, 6 feb 2019)
  317. Cimitero leggendario‏‎ (14:49, 6 feb 2019)
  318. Torre stregata‏‎ (14:49, 6 feb 2019)
  319. Necropoli‏‎ (14:49, 6 feb 2019)
  320. Vecchio Cimitero‏‎ (14:49, 6 feb 2019)
  321. Antico Cimitero‏‎ (14:49, 6 feb 2019)
  322. Rotonda botanica‏‎ (14:49, 6 feb 2019)
  323. Possente Palo di maggio‏‎ (14:49, 6 feb 2019)
  324. Palo di maggio‏‎ (14:49, 6 feb 2019)
  325. Imponente Palo di maggio‏‎ (14:49, 6 feb 2019)
  326. Piazza dei Vincitori‏‎ (14:49, 6 feb 2019)
  327. Fontana Giardino classico‏‎ (14:49, 6 feb 2019)
  328. Bagni pubblici decorati‏‎ (14:49, 6 feb 2019)
  329. Castello di sabbia‏‎ (14:49, 6 feb 2019)
  330. Fontana dell'elefante‏‎ (14:49, 6 feb 2019)
  331. Trofeo Premio‏‎ (14:49, 6 feb 2019)
  332. Pozzo dell'accoglienza‏‎ (14:49, 6 feb 2019)
  333. Canale di Venezia‏‎ (14:49, 6 feb 2019)
  334. Statua in maschera da Zanni‏‎ (14:49, 6 feb 2019)
  335. Statua in maschera‏‎ (14:49, 6 feb 2019)
  336. Schiaccianoci‏‎ (14:49, 6 feb 2019)
  337. Slitta con renne‏‎ (14:49, 6 feb 2019)
  338. Torre di regali‏‎ (14:49, 6 feb 2019)
  339. Albero delle Festività‏‎ (14:49, 6 feb 2019)
  340. Statua Ingresso Est‏‎ (14:49, 6 feb 2019)
  341. Statua Ingresso Ovest‏‎ (14:49, 6 feb 2019)
  342. Coppa del vicinato‏‎ (14:49, 6 feb 2019)
  343. Coppa FoE‏‎ (14:49, 6 feb 2019)
  344. Spalti‏‎ (14:49, 6 feb 2019)
  345. Uomo vitruviano‏‎ (14:49, 6 feb 2019)
  346. Alberello di glicine‏‎ (14:49, 6 feb 2019)
  347. Volto dell'Antico‏‎ (14:49, 6 feb 2019)
  348. Cancello del dio del sole‏‎ (14:49, 6 feb 2019)
  349. Spaventapasseri‏‎ (14:49, 6 feb 2019)
  350. Cappella di Jack O'Lantern‏‎ (14:49, 6 feb 2019)
  351. Memento‏‎ (14:49, 6 feb 2019)
  352. Pozzo‏‎ (14:49, 6 feb 2019)
  353. Mobilito‏‎ (14:49, 6 feb 2019)
  354. Premio d'oro‏‎ (14:49, 6 feb 2019)
  355. Statua di Phoenix‏‎ (14:49, 6 feb 2019)
  356. Premio d'argento‏‎ (14:49, 6 feb 2019)
  357. Premio di bronzo‏‎ (14:49, 6 feb 2019)
  358. Premio di pietra‏‎ (14:49, 6 feb 2019)
  359. Rovine del Giardino‏‎ (14:49, 6 feb 2019)
  360. Trofeo Forge Bowl‏‎ (14:49, 6 feb 2019)
  361. Excalibur‏‎ (14:49, 6 feb 2019)
  362. Statue Giardino classico‏‎ (14:49, 6 feb 2019)
  363. Lv. 1 - Stagno Nishikigoi‏‎ (14:49, 6 feb 2019)
  364. Lv. 1 - Roccia di sakura‏‎ (14:49, 6 feb 2019)
  365. Lv. 2 - Stagno Nishikigoi‏‎ (14:49, 6 feb 2019)
  366. Lv. 2 - Roccia di sakura‏‎ (14:49, 6 feb 2019)
  367. Palma‏‎ (14:49, 6 feb 2019)
  368. Sfinge‏‎ (14:49, 6 feb 2019)
  369. Totem Tiki‏‎ (14:49, 6 feb 2019)
  370. Amaca‏‎ (14:49, 6 feb 2019)
  371. Meridiana‏‎ (14:50, 6 feb 2019)
  372. Baobab decorato‏‎ (14:50, 6 feb 2019)
  373. Stagno del Maharaja‏‎ (14:50, 6 feb 2019)
  374. Parco giochi del Bandar‏‎ (14:50, 6 feb 2019)
  375. Aro titano‏‎ (14:50, 6 feb 2019)
  376. Albero dell'amore‏‎ (14:50, 6 feb 2019)
  377. Giardino del Chhatri‏‎ (14:50, 6 feb 2019)
  378. Grande albero dell'amore‏‎ (14:50, 6 feb 2019)
  379. Eterno albero dell'amore‏‎ (14:50, 6 feb 2019)
  380. Banchetto di Smörgåsbord‏‎ (14:50, 6 feb 2019)
  381. Halmbock‏‎ (14:50, 6 feb 2019)
  382. Tenda del riparatore‏‎ (14:50, 6 feb 2019)
  383. Tenda del fabbricante di candele‏‎ (14:50, 6 feb 2019)
  384. Torre della vittoria - Lv. 1‏‎ (14:50, 6 feb 2019)
  385. Torre della vittoria - Lv. 2‏‎ (14:50, 6 feb 2019)
  386. Pozzo dei desideri‏‎ (14:50, 6 feb 2019)
  387. Pozzo dei desideri piccolo‏‎ (14:50, 6 feb 2019)
  388. Fontana della giovinezza‏‎ (14:50, 6 feb 2019)
  389. Labirinto di siepi‏‎ (14:50, 6 feb 2019)
  390. Lv. 1 - Gong della saggezza‏‎ (14:50, 6 feb 2019)
  391. Lv. 2 - Gong della saggezza‏‎ (14:50, 6 feb 2019)
  392. Tenda di Madame Fortuna‏‎ (14:50, 6 feb 2019)
  393. Tenda Stella di paglia‏‎ (14:50, 6 feb 2019)
  394. Voliera‏‎ (14:50, 6 feb 2019)
  395. Ballo in maschera‏‎ (14:50, 6 feb 2019)
  396. Mercato del pontile della gondola‏‎ (14:50, 6 feb 2019)
  397. Fabbrica di Dolciumi‏‎ (14:50, 6 feb 2019)
  398. Fabbrica di dolciumi leggendaria‏‎ (14:50, 6 feb 2019)
  399. Bottega di Babbo Natale‏‎ (14:50, 6 feb 2019)
  400. Recinto delle Renne‏‎ (14:50, 6 feb 2019)
  401. Grande Fabbrica di Dolciumi‏‎ (14:50, 6 feb 2019)
  402. Enorme fabbrica di dolciumi‏‎ (14:50, 6 feb 2019)
  403. Negozio del tifoso‏‎ (14:50, 6 feb 2019)
  404. Campo di calcio‏‎ (14:50, 6 feb 2019)
  405. Negozio Foebergé‏‎ (14:50, 6 feb 2019)
  406. Fattoria terrazzata‏‎ (14:50, 6 feb 2019)
  407. Fabbrica di succo‏‎ (14:50, 6 feb 2019)
  408. Fabbrica di succo in fiore‏‎ (14:50, 6 feb 2019)
  409. Fabbrica di succo fruttuosa‏‎ (14:50, 6 feb 2019)
  410. Fabbrica di succo produttiva‏‎ (14:50, 6 feb 2019)
  411. Fabbrica di succo prospera‏‎ (14:50, 6 feb 2019)
  412. Roseto‏‎ (14:50, 6 feb 2019)
  413. Laboratorio dello scienziato pazzo‏‎ (14:50, 6 feb 2019)
  414. Arena dei Vincitori‏‎ (14:50, 6 feb 2019)
  415. Bar sulla spiaggia‏‎ (14:50, 6 feb 2019)
  416. Bazar‏‎ (14:50, 6 feb 2019)
  417. Luau‏‎ (14:50, 6 feb 2019)
  418. Tesoro sommerso‏‎ (14:50, 6 feb 2019)
  419. Stregone‏‎ (14:50, 6 feb 2019)
  420. Capolavoro‏‎ (14:50, 6 feb 2019)
  421. Costruttore di slitte‏‎ (14:50, 6 feb 2019)
  422. Il Re‏‎ (14:50, 6 feb 2019)
  423. Villa rinascimentale‏‎ (14:50, 6 feb 2019)
  424. La Regina‏‎ (14:50, 6 feb 2019)
  425. Magione rinascimentale‏‎ (14:50, 6 feb 2019)
  426. Gran Ponte - Lv. 1‏‎ (14:50, 6 feb 2019)
  427. Gran Ponte - Lv. 2‏‎ (14:50, 6 feb 2019)
  428. Gran Ponte - Lv. 3‏‎ (14:50, 6 feb 2019)
  429. Gran Ponte - Lv. 4‏‎ (14:50, 6 feb 2019)
  430. Gran Ponte - Lv. 5‏‎ (14:51, 6 feb 2019)
  431. Gran Ponte - Lv. 6‏‎ (14:51, 6 feb 2019)
  432. Gran Ponte - Lv. 7‏‎ (14:51, 6 feb 2019)
  433. Capanna di legno‏‎ (14:51, 6 feb 2019)
  434. Casetta di pan di zenzero‏‎ (14:51, 6 feb 2019)
  435. Sfera Innevata‏‎ (14:51, 6 feb 2019)
  436. Giardino dell’obelisco‏‎ (14:51, 6 feb 2019)
  437. Yggdrasil - Liv. 1‏‎ (14:51, 6 feb 2019)
  438. Yggdrasil - Liv. 2‏‎ (14:51, 6 feb 2019)
  439. Yggdrasil - Liv. 3‏‎ (14:51, 6 feb 2019)
  440. Yggdrasil - Liv. 4‏‎ (14:51, 6 feb 2019)
  441. Yggdrasil - Liv. 5‏‎ (14:51, 6 feb 2019)
  442. Yggdrasil - Liv. 6‏‎ (14:51, 6 feb 2019)
  443. Yggdrasil - Liv. 7‏‎ (14:51, 6 feb 2019)
  444. Yggdrasil - Liv. 8‏‎ (14:51, 6 feb 2019)
  445. Pietra runica maggiore - Liv. 1‏‎ (14:51, 6 feb 2019)
  446. Yggdrasil - Liv. 9‏‎ (14:51, 6 feb 2019)
  447. Pietra runica maggiore - Liv. 2‏‎ (14:51, 6 feb 2019)
  448. Pietra runica maggiore - Liv. 3‏‎ (14:51, 6 feb 2019)
  449. Pietra runica maggiore - Liv. 4‏‎ (14:51, 6 feb 2019)
  450. Pietra runica maggiore - Liv. 5‏‎ (14:51, 6 feb 2019)
  451. La Tenuta del Lord‏‎ (14:51, 6 feb 2019)
  452. Santuario della conoscenza‏‎ (14:51, 6 feb 2019)
  453. Santuario dell'ispirazione‏‎ (14:51, 6 feb 2019)
  454. Santuario dell'ammirazione‏‎ (14:51, 6 feb 2019)
  455. Piazza tribale‏‎ (14:51, 6 feb 2019)
  456. Foresta d'autunno‏‎ (14:51, 6 feb 2019)
  457. Guardia del cielo sacra‏‎ (14:51, 6 feb 2019)
  458. Mulino d'autunno - Liv. 1‏‎ (14:51, 6 feb 2019)
  459. Mulino d'autunno - Liv. 2‏‎ (14:51, 6 feb 2019)
  460. Mulino d'autunno - Liv. 3‏‎ (14:51, 6 feb 2019)
  461. Mulino d'autunno - Liv. 4‏‎ (14:51, 6 feb 2019)
  462. Mulino d'autunno - Liv. 5‏‎ (14:51, 6 feb 2019)
  463. Mulino d'autunno - Liv. 6‏‎ (14:51, 6 feb 2019)
  464. Mulino d'autunno acquoso‏‎ (14:51, 6 feb 2019)
  465. Mulino d'autunno variopinto‏‎ (14:51, 6 feb 2019)
  466. Mulino d'autunno con girasoli‏‎ (14:51, 6 feb 2019)
  467. Torre della Meridiana‏‎ (14:51, 6 feb 2019)
  468. Torre Nera‏‎ (14:51, 6 feb 2019)
  469. Soglia oscura‏‎ (14:51, 6 feb 2019)
  470. Casa Stregata‏‎ (14:51, 6 feb 2019)
  471. Cascata Reale‏‎ (14:51, 6 feb 2019)
  472. Portale reale di marmo‏‎ (14:51, 6 feb 2019)
  473. Statua del Re‏‎ (14:51, 6 feb 2019)
  474. Statua della Regina‏‎ (14:51, 6 feb 2019)
  475. Serraglio‏‎ (14:51, 6 feb 2019)
  476. Alloggi degli Atleti‏‎ (14:51, 6 feb 2019)
  477. Pilastro degli Eroi - Lv. 2‏‎ (14:51, 6 feb 2019)
  478. Pilastro degli Eroi - Lv. 1‏‎ (14:51, 6 feb 2019)
  479. Pilastro degli Eroi - Lv. 4‏‎ (14:51, 6 feb 2019)
  480. Pilastro degli Eroi - Lv. 3‏‎ (14:51, 6 feb 2019)
  481. Pilastro degli Eroi - Lv. 5‏‎ (14:51, 6 feb 2019)
  482. Pilastro degli Eroi - Lv. 7‏‎ (14:51, 6 feb 2019)
  483. Pilastro degli Eroi - Lv. 6‏‎ (14:51, 6 feb 2019)
  484. Tenuta degli sfidanti‏‎ (14:51, 6 feb 2019)
  485. Tholos degli Idoli - Liv. 1‏‎ (14:51, 6 feb 2019)
  486. Tholos degli Idoli - Liv. 3‏‎ (14:51, 6 feb 2019)
  487. Tholos degli Idoli - Liv. 2‏‎ (14:51, 6 feb 2019)
  488. Tholos degli Idoli - Liv. 4‏‎ (14:51, 6 feb 2019)
  489. Tholos degli Idoli - Liv. 5‏‎ (14:51, 6 feb 2019)
  490. Tholos degli Idoli - Liv. 6‏‎ (14:51, 6 feb 2019)
  491. Tholos degli Idoli - Liv. 7‏‎ (14:51, 6 feb 2019)
  492. Tholos degli Idoli - Liv. 8‏‎ (14:51, 6 feb 2019)
  493. Tholos degli Idoli - Liv. 10‏‎ (14:51, 6 feb 2019)
  494. Tholos degli Idoli - Liv. 9‏‎ (14:51, 6 feb 2019)
  495. Colosso - Lv. 1‏‎ (14:51, 6 feb 2019)
  496. Colosso - Lv. 2‏‎ (14:51, 6 feb 2019)
  497. Colosso - Lv. 3‏‎ (14:51, 6 feb 2019)
  498. Colosso - Lv. 4‏‎ (14:51, 6 feb 2019)
  499. Colosso - Lv. 5‏‎ (14:51, 6 feb 2019)
  500. Colosso - Lv. 6‏‎ (14:51, 6 feb 2019)

Vedi (precedenti 500 | successivi 500) (20 | 50 | 100 | 250 | 500).